Wind_Speed
33 34 32 29 29 29 31 32 32 29 29 31 29 26 24 25 28 29 28 29 30 32 33 36 37 36 34 33 33 33 32 33 34 36 37 37 36 34 33 34 35 36 37 37
34 32 27 29 32 32 33 34 32 29 30 32 33 31 28 27 27 28 29 30 32 33 35 36 37 37 38 37 35 35 36 37 36 36 39 40 39 37 37 37 37 38 39 40
30 26 29 32 32 31 31 31 30 29 29 33 35 33 29 27 26 27 29 32 34 35 35 37 38 38 37 37 35 36 38 39 39 40 42 41 41 40 38 38 38 39 41 41
29 29 32 33 32 30 28 27 27 29 30 32 33 34 29 27 28 29 30 32 34 35 37 36 36 36 36 36 36 38 40 41 43 44 43 44 41 39 39 39 40 41 42 43
27 29 31 30 29 29 27 25 26 28 30 32 32 34 29 28 32 33 33 34 35 36 36 35 34 34 35 36 37 39 41 44 45 44 45 43 40 39 39 40 41 41 43 44
26 30 31 29 26 25 24 24 25 28 30 29 25 30 27 23 29 33 36 37 37 37 36 35 33 33 34 36 39 42 44 46 46 45 44 43 41 40 40 41 42 43 44 45
26 29 31 30 27 24 23 23 24 26 26 20 17 22 19 19 24 28 31 32 33 32 32 31 30 32 34 38 42 45 48 48 47 44 44 44 43 42 42 43 44 45 46 46
25 26 27 26 24 21 21 22 22 22 20 16 17 17 14 17 21 23 25 25 25 26 27 29 31 33 36 40 43 46 47 47 47 46 45 44 44 44 44 45 47 48 48 49
23 23 23 22 20 19 18 19 18 20 19 18 19 18 16 18 21 22 22 23 24 26 29 31 33 36 39 42 44 45 45 45 46 43 42 43 44 45 47 49 50 50 51 52
23 24 26 25 24 23 21 18 19 21 21 21 20 20 21 24 25 25 26 27 28 31 33 35 37 39 41 43 46 45 42 41 40 40 41 43 45 47 50 51 52 53 54 55
25 27 27 26 25 24 23 23 24 22 22 22 22 22 24 26 28 30 31 32 33 35 36 38 39 40 42 44 45 44 43 41 38 39 41 45 47 50 52 54 55 56 57 58
27 30 29 28 25 24 25 25 25 26 25 23 24 26 27 29 30 31 32 33 34 36 37 39 39 41 43 44 45 44 42 39 38 41 44 47 50 53 55 57 58 60 61 62
29 31 30 29 28 26 27 28 29 29 28 27 26 30 31 32 32 34 35 36 38 40 41 42 42 43 43 44 45 45 44 44 45 46 48 51 54 55 57 59 61 62 63 64
32 32 31 32 33 32 31 30 31 31 31 31 31 33 35 36 36 37 38 40 41 42 43 44 44 45 45 46 48 49 49 51 52 53 54 55 56 58 59 61 62 62 62 62
34 34 34 34 35 36 36 35 35 35 35 36 37 38 39 41 42 43 44 45 46 47 46 46 47 49 52 54 55 55 56 56 57 57 57 57 57 57 58 58 58 58 59 58
37 37 37 37 37 39 40 41 41 41 42 43 44 46 47 47 48 49 49 49 49 48 48 50 52 55 57 58 58 58 57 58 57 57 56 56 55 55 55 55 54 54 55 55
39 38 38 39 39 40 42 43 44 45 46 47 48 48 49 50 51 51 51 50 50 51 53 55 56 58 58 57 57 57 57 57 56 56 55 54 53 51 50 51 51 52 53 54
38 39 38 38 37 38 40 42 44 45 47 49 50 51 52 52 52 53 53 54 56 57 58 58 57 57 57 56 56 55 55 54 53 52 51 49 48 48 48 48 49 50 51 52
36 36 36 36 35 35 36 38 40 41 44 46 48 50 52 53 53 54 54 55 55 55 55 55 54 54 54 53 53 53 52 51 49 47 46 45 44 45 45 46 48 50 52 53
31 31 32 32 32 32 32 33 35 37 40 41 43 45 47 48 49 49 49 50 50 50 51 51 51 51 51 50 49 49 47 46 44 43 42 42 42 43 45 46 49 51 51 50
25 25 25 26 27 29 29 29 29 32 35 36 38 40 41 43 44 45 46 46 47 47 47 47 47 47 46 45 44 44 42 41 40 39 40 40 42 44 45 46 46 45 44 43
22 21 21 22 22 23 23 24 26 28 30 32 34 36 37 39 40 42 43 43 43 43 43 43 43 42 41 40 39 38 37 37 37 37 38 39 40 41 40 40 39 39 38 38
20 21 20 20 21 21 22 24 25 26 28 29 31 33 35 36 37 37 38 38 38 38 38 38 37 36 35 34 33 33 33 33 34 35 35 36 36 36 36 36 36 35 34 33
20 19 19 20 21 22 23 24 25 26 27 28 30 31 32 33 33 33 33 33 33 32 31 30 29 28 28 28 29 30 30 31 31 32 32 33 33 33 33 32 31 30 28 27
18 18 18 19 19 21 22 23 24 26 27 28 29 29 30 29 29 28 28 27 25 24 24 23 22 22 23 24 25 26 26 28 29 31 31 31 31 30 28 27 26 24 23 22
17 18 19 19 20 21 22 23 23 25 25 26 26 25 24 23 22 21 20 18 18 17 17 17 18 19 20 21 23 25 27 28 29 29 29 28 27 26 24 22 21 20 20 19
Wind_Direction
228 229 229 231 232 232 233 235 234 232 231 235 237 237 231 227 236 244 250 260 268 273 278 281 285 290 292 297 302 303 302 302 301 300 299 298 296 294 294 294 293 293 294 296
229 229 228 228 229 228 230 233 234 232 232 238 240 239 236 231 234 240 249 258 265 270 274 279 283 288 292 296 299 299 301 299 297 295 294 292 290 292 291 291 291 292 293 294
229 227 225 226 228 229 232 235 236 233 230 237 243 244 242 240 240 241 247 256 264 270 275 278 282 286 289 292 294 296 295 295 296 295 291 288 287 289 291 290 290 291 292 294
221 219 223 225 226 226 228 232 235 234 232 234 242 247 244 244 244 244 249 257 263 268 273 276 279 283 286 289 291 292 291 292 293 290 287 286 287 289 290 289 289 290 291 293
219 219 223 226 228 228 225 226 232 236 238 238 240 250 250 244 246 247 250 256 261 266 270 273 276 280 283 286 287 287 288 289 289 286 286 290 292 290 290 290 290 290 292 294
213 214 218 219 221 225 224 226 232 237 241 244 243 250 253 244 245 246 249 253 258 261 264 268 272 276 280 283 283 284 285 286 285 286 288 293 294 291 290 290 291 292 293 293
212 215 217 215 213 215 219 226 233 239 243 245 239 244 244 239 239 242 246 250 253 255 260 265 269 275 277 277 277 278 281 283 286 289 292 294 293 291 291 291 292 292 293 293
214 216 218 218 218 215 220 228 236 242 243 232 222 232 236 240 240 244 248 252 255 257 261 266 269 271 271 271 273 275 279 283 287 289 290 291 291 292 292 292 292 292 292 292
211 209 208 211 212 217 225 234 239 242 239 234 225 230 242 246 248 251 254 257 259 262 263 266 269 269 269 269 273 274 278 281 284 286 289 290 290 290 290 290 290 290 290 290
210 204 201 202 209 216 224 233 241 243 243 242 238 238 243 246 250 254 258 261 263 265 266 268 269 270 272 273 277 276 278 280 282 284 286 287 288 288 288 289 289 289 289 290
211 209 203 206 212 219 222 228 236 244 248 250 251 251 249 248 249 252 255 260 263 266 268 270 272 274 276 277 279 278 278 278 278 281 284 285 286 287 287 287 287 287 288 288
215 216 211 209 213 220 222 227 234 241 248 253 256 257 254 252 252 254 257 261 265 267 270 273 275 276 278 278 280 281 281 279 280 284 285 285 286 286 285 285 286 286 287 289
221 223 220 212 213 217 218 222 227 234 240 245 248 252 256 257 258 260 263 266 268 269 272 274 276 278 279 281 280 281 283 283 286 287 286 286 285 285 284 285 285 286 287 289
227 230 229 222 218 218 219 222 227 231 236 240 244 249 255 259 261 262 264 266 267 269 270 273 277 281 282 283 284 283 284 286 288 288 288 287 286 285 285 285 285 286 287 289
234 236 238 235 231 230 232 234 235 237 240 243 247 250 255 259 261 263 265 266 267 269 271 275 278 281 284 285 287 287 288 289 289 289 289 288 287 287 286 286 287 287 287 288
240 241 243 243 243 242 243 245 247 248 250 252 254 256 258 260 261 263 264 265 267 270 273 276 280 284 286 287 287 288 288 289 289 290 290 290 289 289 288 288 288 288 289 290
245 245 245 247 249 249 248 247 248 249 251 254 255 257 259 261 262 263 266 269 273 277 279 283 285 287 287 287 288 289 289 290 290 291 291 291 291 290 290 290 289 290 291 291
249 250 249 250 249 250 251 250 249 249 250 251 253 256 259 262 265 269 273 276 279 282 284 285 286 287 288 288 289 290 290 291 291 292 292 291 291 290 289 289 290 291 293 293
248 250 251 251 250 250 250 252 253 253 253 254 255 258 260 263 267 271 274 276 279 281 283 284 285 287 288 289 289 290 291 292 293 293 292 291 290 289 289 290 291 292 293 295
248 250 252 253 254 254 253 254 255 256 257 258 260 263 265 268 270 272 274 276 278 281 283 284 286 287 287 289 290 291 292 293 293 293 292 290 290 290 291 292 292 293 294 295
248 249 252 255 257 257 258 259 260 260 261 262 263 265 268 270 272 274 276 278 280 282 283 285 286 287 288 290 291 292 293 293 293 292 291 291 291 292 292 293 295 296 298 299
248 250 254 257 260 262 264 266 267 267 267 266 267 269 271 272 274 276 278 280 282 283 284 285 287 288 289 290 292 293 294 294 294 294 294 294 295 295 296 297 299 300 301 301
253 253 257 260 263 266 268 270 270 271 271 272 273 273 275 276 278 279 281 282 284 285 286 287 289 290 291 292 293 294 296 296 297 297 297 298 299 300 301 302 303 303 303 303
260 261 263 265 267 270 271 273 274 274 275 276 276 277 279 281 282 283 284 286 287 288 289 291 291 292 293 294 296 298 300 301 301 302 303 304 305 305 305 305 304 304 304 304
260 264 266 268 270 272 275 277 278 279 279 279 279 281 282 284 285 286 287 288 289 291 293 294 295 297 299 301 304 305 307 308 309 309 308 308 308 307 306 305 306 306 306 307
258 263 267 272 276 279 281 281 282 282 282 281 282 283 284 285 286 286 287 288 290 294 297 301 304 307 310 312 313 314 315 314 313 312 311 310 310 309 308 308 309 310 310 310
Height
5821 5826 5831 5836 5839 5843 5844 5846 5849 5854 5855 5854 5855 5856 5860 5862 5863 5863 5864 5865 5865 5865 5866 5866 5865 5865 5864 5863 5863 5862 5861 5859 5856 5853 5851 5849 5848 5846 5845 5844 5842 5840 5838 5836
5815 5821 5827 5829 5831 5834 5836 5839 5842 5847 5849 5849 5849 5850 5852 5855 5857 5858 5859 5860 5861 5861 5861 5860 5859 5858 5857 5856 5856 5855 5854 5852 5849 5846 5844 5842 5840 5838 5837 5836 5834 5832 5830 5828
5810 5817 5818 5820 5824 5827 5830 5833 5837 5840 5843 5842 5842 5844 5846 5849 5851 5853 5855 5855 5855 5855 5855 5854 5853 5852 5851 5850 5849 5848 5847 5844 5841 5838 5837 5834 5832 5831 5830 5828 5826 5824 5822 5820
5803 5807 5810 5813 5817 5820 5825 5828 5831 5833 5835 5836 5837 5837 5841 5843 5845 5847 5848 5849 5849 5849 5848 5848 5847 5846 5845 5844 5842 5842 5840 5837 5834 5831 5828 5825 5822 5822 5822 5820 5818 5816 5813 5811
5798 5802 5804 5809 5813 5815 5819 5822 5824 5826 5827 5830 5831 5831 5836 5839 5839 5840 5842 5842 5842 5841 5841 5840 5840 5840 5839 5837 5836 5835 5832 5829 5827 5823 5819 5816 5813 5814 5813 5812 5810 5807 5805 5802
5792 5795 5798 5803 5807 5810 5813 5816 5818 5819 5821 5824 5828 5828 5829 5833 5833 5833 5834 5834 5834 5834 5834 5834 5834 5833 5832 5831 5829 5827 5824 5820 5817 5814 5811 5809 5808 5807 5806 5804 5802 5799 5796 5793
5786 5789 5793 5797 5800 5803 5807 5810 5813 5814 5815 5819 5822 5821 5824 5824 5824 5825 5825 5826 5827 5827 5827 5827 5827 5826 5825 5824 5822 5819 5816 5812 5808 5804 5803 5803 5801 5800 5798 5796 5793 5790 5787 5784
5781 5786 5790 5793 5796 5799 5802 5805 5808 5810 5812 5815 5816 5816 5818 5817 5818 5818 5819 5820 5820 5820 5821 5820 5820 5819 5817 5816 5813 5811 5808 5805 5802 5800 5798 5796 5793 5791 5789 5787 5784 5781 5777 5774
5778 5784 5788 5790 5793 5796 5798 5800 5803 5805 5806 5808 5811 5812 5813 5812 5812 5813 5813 5813 5814 5814 5814 5813 5812 5811 5809 5807 5805 5802 5799 5798 5796 5794 5791 5788 5786 5783 5780 5777 5774 5770 5766 5762
5773 5779 5782 5785 5787 5790 5793 5796 5798 5799 5800 5802 5805 5806 5806 5806 5807 5807 5807 5808 5808 5808 5807 5807 5805 5804 5802 5799 5797 5794 5791 5789 5787 5785 5782 5780 5777 5774 5770 5766 5762 5758 5754 5750
5767 5773 5778 5781 5783 5784 5788 5790 5791 5793 5795 5797 5798 5801 5800 5800 5801 5801 5802 5801 5801 5801 5800 5799 5798 5796 5794 5791 5788 5785 5782 5779 5777 5775 5773 5770 5767 5763 5759 5755 5750 5746 5742 5737
5762 5767 5772 5776 5778 5779 5781 5783 5785 5787 5789 5791 5792 5795 5792 5793 5793 5794 5795 5795 5794 5793 5792 5790 5788 5787 5785 5782 5779 5776 5772 5770 5767 5765 5763 5759 5756 5752 5747 5743 5738 5733 5729 5724
5757 5761 5766 5771 5775 5774 5774 5775 5777 5780 5782 5783 5785 5786 5783 5784 5786 5787 5787 5786 5786 5784 5782 5781 5779 5777 5774 5772 5769 5766 5764 5761 5758 5755 5751 5747 5743 5739 5734 5730 5725 5720 5715 5710
5752 5756 5760 5765 5766 5767 5767 5768 5770 5772 5773 5774 5776 5777 5777 5777 5778 5778 5778 5777 5776 5775 5773 5771 5769 5767 5765 5762 5759 5756 5753 5749 5746 5742 5739 5734 5730 5725 5720 5715 5710 5705 5700 5695
5748 5751 5754 5757 5760 5761 5762 5762 5762 5764 5764 5766 5768 5769 5770 5770 5770 5769 5769 5768 5766 5765 5763 5761 5759 5756 5754 5751 5747 5744 5740 5737 5733 5729 5724 5720 5715 5710 5705 5700 5695 5691 5686 5680
5742 5745 5747 5749 5752 5754 5754 5755 5755 5756 5757 5759 5761 5762 5762 5762 5761 5760 5758 5757 5756 5754 5752 5750 5747 5744 5741 5738 5735 5731 5727 5722 5718 5714 5709 5704 5700 5695 5690 5685 5680 5676 5671 5666
5732 5735 5738 5740 5742 5743 5744 5745 5747 5748 5750 5751 5752 5753 5752 5752 5751 5749 5747 5746 5744 5742 5740 5738 5735 5731 5728 5724 5721 5717 5712 5708 5703 5699 5694 5689 5684 5680 5675 5671 5666 5661 5657 5652
5723 5726 5728 5730 5733 5733 5734 5734 5736 5738 5739 5741 5742 5742 5742 5741 5740 5739 5737 5735 5733 5731 5728 5725 5722 5718 5715 5711 5707 5703 5698 5694 5689 5684 5680 5675 5670 5666 5662 5657 5652 5648 5643 5639
5714 5717 5718 5721 5722 5723 5724 5725 5726 5728 5728 5730 5730 5731 5730 5730 5729 5728 5726 5724 5722 5719 5716 5712 5709 5706 5702 5698 5694 5689 5685 5680 5676 5671 5667 5662 5658 5653 5649 5645 5640 5636 5631 5626
5706 5708 5710 5711 5713 5715 5718 5717 5717 5719 5718 5720 5719 5719 5719 5718 5718 5718 5715 5713 5710 5707 5704 5701 5698 5694 5690 5686 5681 5677 5672 5668 5663 5659 5655 5650 5646 5642 5637 5633 5628 5623 5618 5613
5700 5701 5703 5704 5705 5707 5709 5709 5709 5711 5711 5711 5710 5710 5709 5708 5707 5706 5704 5701 5699 5696 5693 5690 5686 5682 5678 5674 5670 5665 5661 5656 5652 5648 5644 5639 5635 5631 5626 5621 5616 5611 5606 5601
5694 5695 5697 5698 5699 5702 5701 5701 5702 5702 5702 5701 5701 5700 5699 5698 5697 5695 5693 5691 5688 5685 5682 5679 5675 5671 5667 5664 5659 5655 5651 5646 5642 5638 5633 5629 5624 5620 5615 5610 5605 5600 5595 5591
5689 5691 5692 5693 5695 5694 5694 5694 5694 5693 5693 5692 5692 5691 5690 5688 5687 5685 5683 5681 5678 5675 5672 5668 5665 5661 5658 5654 5650 5646 5642 5637 5633 5628 5624 5619 5614 5610 5605 5600 5595 5590 5586 5581
5684 5685 5686 5687 5687 5687 5687 5687 5686 5685 5685 5684 5683 5682 5680 5679 5677 5675 5673 5670 5668 5665 5662 5659 5657 5653 5650 5646 5643 5638 5634 5629 5624 5620 5615 5610 5605 5600 5596 5591 5586 5582 5578 5574
5679 5680 5680 5680 5681 5681 5681 5680 5679 5678 5677 5675 5674 5673 5672 5670 5668 5666 5664 5662 5660 5658 5656 5653 5650 5647 5644 5640 5636 5632 5627 5622 5617 5612 5607 5602 5597 5592 5588 5583 5579 5575 5572 5568
5675 5675 5675 5675 5675 5675 5675 5673 5672 5670 5669 5667 5666 5665 5664 5662 5661 5659 5658 5656 5655 5653 5651 5649 5646 5643 5639 5635 5631 5626 5621 5616 5610 5605 5599 5594 5590 5585 5581 5577 5573 5570 5567 5563